星链-2661 (STARLINK-2661 )

导读

STARLINK-2661是美国SpaceX公司星链(Starlink)卫星互联网项目中的一颗卫星,于2021年5月9日发射入轨,属于星链低轨星座组网卫星之一,运行在近地轨道,主要为全球提供高速卫星互联网接入服务,也是美国星链星座大规模扩容过程中的重要组成部分。

Basic Information
目录编号:
48469
目录名称:
STARLINK-2661
国际标识:
2021-040AT
轨道中心:
EARTH
卫星名称:
星链-2661
卫星全名:
星链-2661 (STARLINK-2661 )
卫星状态:
在轨 (已飞行1866 天)
发射日期:
2021-05-09 UTC
国别 :
美国 (US)
星等 :
--
Orbit Information
数据来源 国际轨道数据 AOE轨道数据
星历时间 2026-06-18T12:38:35+0800
11小时前
查看轨道信息
2026-06-14T01:00:00+0800
4天前
查看轨道信息
半长轴 6848.872km 6848.889km
偏心率 0.0001239 0.0001394
轨道倾角 53.159° 53.159°
近地点辐角 99.657° 79.006°
升交点赤经 83.622° 104.503°
平近点角 260.457° 15.774°
近地点 469.886km 469.797km
远地点 471.584km 471.707km
周期 94.013分钟 94.013分钟
每日圈数 15.317017 15.316962
Detailed Information
固有亮度:
5
最大亮度:
2.5
卫星平台:
Starlink V1.0
覆盖范围:
全球
运营商:
太空探索技术公司
运营商所在国:
美国
制造商(研发单位):
太空探索技术公司
制造商所在国:
美国
使用方式:
暂无
Satellite Introduction
星链(Starlink)计划是由太空探索技术公司(SpaceX)提出的一个巨型低轨卫星互联网星座项目,计划在2019年至2024年间在太空搭建由约1.2万颗卫星组成的“星链”网络,其中1584颗将部署在地球上空550千米处的近地轨道,并从2020年开始工作。该卫星仍在工作。
2D Orbit Map
3D Orbit Map
Orbit Altitude Analysis Chart
Orbit Inclination Analysis Chart
Orbit Comprehensive Analysis Chart
View Comprehensive Chart